When you browse on this site, cookies collect data to enhance your experience and personalize the content and advertising you see.
Visit our Privacy Policy to learn more. By continuing to use the site, you agree to this use of cookies and data.
  • în România
  • Lista ţărilor
  • Pe 7 zile
  • Temperatura apei
  • Meteo pe hartă
  • Widget-uri
  • user-avatar
    Intrare

    Meteo pe oră la Campo Grande

    Astăzi, 22 Septembrie, Duminică

    Timp Temperatura Precipitaţii Vânt Presiune Umiditate
    00:00 +26°C° 0 mm 5 m/s 711 mmHg 51%
    01:00 +26°C° 0 mm 5 m/s 711 mmHg 52%
    02:00 +25°C° 0 mm 5 m/s 710 mmHg 52%
    03:00 +23°C° 0 mm 5 m/s 711 mmHg 57%
    04:00 +23°C° 0 mm 5 m/s 711 mmHg 61%
    05:00 +22°C° 0 mm 4 m/s 711 mmHg 66%
    06:00 +25°C° 0 mm 4 m/s 712 mmHg 63%
    07:00 +27°C° 0 mm 4 m/s 712 mmHg 60%
    08:00 +28°C° 0 mm 5 m/s 713 mmHg 57%
    09:00 +32°C° 0 mm 4 m/s 713 mmHg 50%
    10:00 +34°C° 0 mm 4 m/s 713 mmHg 42%
    11:00 +36°C° 0 mm 4 m/s 714 mmHg 35%
    12:00 +36°C° 0 mm 4 m/s 713 mmHg 35%
    13:00 +36°C° 0 mm 4 m/s 712 mmHg 34%
    14:00 +36°C° 0 mm 4 m/s 711 mmHg 34%
    15:00 +35°C° 0 mm 4 m/s 711 mmHg 36%
    16:00 +34°C° 0 mm 4 m/s 711 mmHg 38%
    17:00 +33°C° 0 mm 4 m/s 711 mmHg 39%
    18:00 +32°C° 0 mm 4 m/s 711 mmHg 41%
    19:00 +30°C° 0 mm 4 m/s 712 mmHg 43%
    20:00 +30°C° 0 mm 4 m/s 712 mmHg 46%
    21:00 +29°C° 0 mm 4 m/s 712 mmHg 47%
    22:00 +28°C° 0 mm 5 m/s 712 mmHg 49%
    23:00 +28°C° 0 mm 5 m/s 712 mmHg 50%

    Mâine, 23 Septembrie, Luni

    Timp Temperatura Precipitaţii Vânt Presiune Umiditate
    00:00 +27°C° 0 mm 6 m/s 712 mmHg 54%
    01:00 +26°C° 0 mm 6 m/s 711 mmHg 57%
    02:00 +24°C° 0 mm 7 m/s 711 mmHg 61%
    03:00 +23°C° 0 mm 7 m/s 711 mmHg 63%
    04:00 +22°C° 0 mm 8 m/s 711 mmHg 65%
    05:00 +21°C° 0 mm 8 m/s 712 mmHg 67%
    06:00 +22°C° 0 mm 8 m/s 712 mmHg 63%
    07:00 +23°C° 0 mm 8 m/s 713 mmHg 58%
    08:00 +24°C° 0 mm 8 m/s 713 mmHg 53%
    09:00 +27°C° 0 mm 8 m/s 713 mmHg 48%
    10:00 +30°C° 0 mm 7 m/s 713 mmHg 42%
    11:00 +33°C° 0 mm 6 m/s 713 mmHg 36%
    12:00 +34°C° 0 mm 6 m/s 712 mmHg 34%
    13:00 +35°C° 0 mm 5 m/s 712 mmHg 32%
    14:00 +36°C° 0 mm 5 m/s 711 mmHg 31%
    15:00 +35°C° 0 mm 5 m/s 711 mmHg 33%
    16:00 +34°C° 0 mm 4 m/s 710 mmHg 34%
    17:00 +33°C° 0 mm 4 m/s 710 mmHg 36%
    18:00 +32°C° 0 mm 5 m/s 710 mmHg 38%
    19:00 +30°C° 0 mm 5 m/s 710 mmHg 41%
    20:00 +29°C° 0 mm 5 m/s 710 mmHg 43%
    21:00 +28°C° 0 mm 6 m/s 711 mmHg 44%
    22:00 +28°C° 0 mm 7 m/s 711 mmHg 46%
    23:00 +27°C° 0 mm 7 m/s 711 mmHg 47%

    Poimâine, 24 Septembrie, Marţi

    Timp Temperatura Precipitaţii Vânt Presiune Umiditate
    00:00 +26°C° 0 mm 8 m/s 711 mmHg 49%
    01:00 +24°C° 0 mm 8 m/s 711 mmHg 50%
    02:00 +23°C° 0 mm 8 m/s 711 mmHg 52%
    03:00 +23°C° 0 mm 8 m/s 711 mmHg 54%
    04:00 +22°C° 0 mm 7 m/s 711 mmHg 56%
    05:00 +21°C° 0 mm 7 m/s 711 mmHg 58%
    06:00 +22°C° 0 mm 7 m/s 711 mmHg 54%
    07:00 +24°C° 0 mm 7 m/s 712 mmHg 50%
    08:00 +26°C° 0 mm 6 m/s 712 mmHg 46%
    09:00 +29°C° 0 mm 6 m/s 712 mmHg 40%
    10:00 +33°C° 0 mm 5 m/s 712 mmHg 34%
    11:00 +36°C° 0 mm 4 m/s 712 mmHg 28%
    12:00 +37°C° 0 mm 3 m/s 711 mmHg 26%
    13:00 +38°C° 0 mm 2 m/s 711 mmHg 24%
    14:00 +39°C° 0 mm 1 m/s 710 mmHg 22%
    15:00 +37°C° 0 mm 1 m/s 710 mmHg 24%
    16:00 +36°C° 0 mm 1 m/s 709 mmHg 25%
    17:00 +35°C° 0 mm 1 m/s 709 mmHg 27%
    18:00 +34°C° 0 mm 2 m/s 709 mmHg 30%
    19:00 +33°C° 0 mm 3 m/s 709 mmHg 34%
    20:00 +30°C° 0 mm 5 m/s 710 mmHg 38%
    21:00 +29°C° 0 mm 6 m/s 710 mmHg 43%
    22:00 +28°C° 0 mm 6 m/s 710 mmHg 47%
    23:00 +26°C° 0 mm 7 m/s 710 mmHg 52%

    25 Septembrie, Miercuri

    Timp Temperatura Precipitaţii Vânt Presiune Umiditate
    00:00 +26°C° 0 mm 7 m/s 710 mmHg 54%
    01:00 +24°C° 0 mm 7 m/s 709 mmHg 56%
    02:00 +23°C° 0 mm 7 m/s 709 mmHg 58%
    03:00 +23°C° 0.1 mm 6 m/s 709 mmHg 62%
    04:00 +22°C° 0.1 mm 6 m/s 709 mmHg 65%
    05:00 +22°C° 0.1 mm 5 m/s 710 mmHg 69%
    06:00 +21°C° 0.5 mm 6 m/s 710 mmHg 73%
    07:00 +20°C° 0.5 mm 6 m/s 711 mmHg 77%
    08:00 +20°C° 0.5 mm 7 m/s 711 mmHg 82%
    09:00 +20°C° 3.1 mm 7 m/s 712 mmHg 84%
    10:00 +19°C° 3.1 mm 6 m/s 712 mmHg 86%
    11:00 +19°C° 3.1 mm 6 m/s 712 mmHg 89%
    12:00 +19°C° 4.9 mm 6 m/s 712 mmHg 90%
    13:00 +19°C° 4.9 mm 5 m/s 712 mmHg 90%
    14:00 +19°C° 4.9 mm 5 m/s 711 mmHg 91%
    15:00 +19°C° 1.2 mm 4 m/s 711 mmHg 90%
    16:00 +19°C° 1.2 mm 3 m/s 711 mmHg 90%
    17:00 +19°C° 1.2 mm 3 m/s 711 mmHg 90%
    18:00 +19°C° 0.1 mm 3 m/s 711 mmHg 89%
    19:00 +19°C° 0.1 mm 3 m/s 712 mmHg 88%
    20:00 +19°C° 0.1 mm 3 m/s 712 mmHg 88%
    21:00 +18°C° 0 mm 3 m/s 712 mmHg 90%
    22:00 +18°C° 0 mm 3 m/s 712 mmHg 91%
    23:00 +18°C° 0 mm 4 m/s 712 mmHg 93%

    26 Septembrie, Joi

    Timp Temperatura Precipitaţii Vânt Presiune Umiditate
    00:00 +17°C° 0 mm 4 m/s 711 mmHg 93%
    01:00 +17°C° 0 mm 4 m/s 711 mmHg 92%
    02:00 +17°C° 0 mm 4 m/s 711 mmHg 92%
    03:00 +17°C° 0 mm 4 m/s 711 mmHg 92%
    04:00 +17°C° 0 mm 4 m/s 711 mmHg 91%
    05:00 +15°C° 0 mm 4 m/s 711 mmHg 91%
    06:00 +18°C° 0 mm 4 m/s 712 mmHg 85%
    07:00 +19°C° 0 mm 4 m/s 712 mmHg 79%
    08:00 +20°C° 0 mm 5 m/s 713 mmHg 73%
    09:00 +22°C° 0 mm 5 m/s 713 mmHg 64%
    10:00 +25°C° 0 mm 5 m/s 713 mmHg 56%
    11:00 +27°C° 0 mm 5 m/s 713 mmHg 47%
    12:00 +28°C° 0 mm 4 m/s 713 mmHg 43%
    13:00 +28°C° 0 mm 4 m/s 712 mmHg 40%
    14:00 +29°C° 0 mm 4 m/s 711 mmHg 36%
    15:00 +28°C° 0 mm 4 m/s 711 mmHg 39%
    16:00 +28°C° 0 mm 3 m/s 711 mmHg 42%
    17:00 +27°C° 0 mm 3 m/s 711 mmHg 45%
    18:00 +25°C° 0 mm 3 m/s 711 mmHg 48%
    19:00 +24°C° 0 mm 3 m/s 711 mmHg 51%
    20:00 +21°C° 0 mm 4 m/s 711 mmHg 54%
    21:00 +21°C° 0 mm 4 m/s 711 mmHg 56%
    22:00 +20°C° 0 mm 4 m/s 711 mmHg 57%
    23:00 +20°C° 0 mm 4 m/s 711 mmHg 59%

    27 Septembrie, Vineri

    Timp Temperatura Precipitaţii Vânt Presiune Umiditate
    00:00 +20°C° 0 mm 4 m/s 711 mmHg 62%
    01:00 +19°C° 0 mm 5 m/s 710 mmHg 65%
    02:00 +19°C° 0 mm 5 m/s 710 mmHg 68%
    03:00 +19°C° 0 mm 5 m/s 710 mmHg 70%
    04:00 +17°C° 0 mm 5 m/s 710 mmHg 72%
    05:00 +17°C° 0 mm 6 m/s 710 mmHg 74%
    06:00 +20°C° 0 mm 6 m/s 711 mmHg 69%
    07:00 +21°C° 0 mm 6 m/s 711 mmHg 63%
    08:00 +23°C° 0 mm 7 m/s 712 mmHg 58%
    09:00 +26°C° 0 mm 6 m/s 712 mmHg 50%
    10:00 +28°C° 0 mm 6 m/s 712 mmHg 43%
    11:00 +30°C° 0 mm 5 m/s 712 mmHg 35%
    12:00 +32°C° 0 mm 4 m/s 712 mmHg 30%
    13:00 +33°C° 0 mm 3 m/s 711 mmHg 26%
    14:00 +34°C° 0 mm 3 m/s 710 mmHg 21%
    15:00 +33°C° 0 mm 3 m/s 710 mmHg 24%
    16:00 +31°C° 0 mm 3 m/s 709 mmHg 28%
    17:00 +29°C° 0 mm 3 m/s 709 mmHg 31%
    18:00 +28°C° 0 mm 4 m/s 709 mmHg 35%
    19:00 +26°C° 0 mm 4 m/s 709 mmHg 39%
    20:00 +25°C° 0 mm 5 m/s 710 mmHg 43%
    21:00 +23°C° 0 mm 5 m/s 710 mmHg 45%
    22:00 +22°C° 0 mm 5 m/s 710 mmHg 47%
    23:00 +22°C° 0 mm 5 m/s 710 mmHg 50%
    Arată mai mult